Kineis-5B

operational
NORAD ID: 62085 Int'l Des: 2024-219 Owner: KINEIS Country: F
LEOCIRCULARRETROGRADESSO

Über Kineis-5B

Beschreibung wird geladen...

Live-Position

3D-Globus wird geladen...

Nächste Überflüge

Höhenverlauf

Altitude vs Time

uPlot chart will show altitude changes over time

Zweizeiliger Elementsatz

1 62085U 24219E 26062.17946801 .00002166 00000-0 30711-3 0 9991
2 62085 97.9930 226.7124 0001070 217.5406 142.5730 14.78040858 68345
Epoch: 3. März 2026 • Age: 14 hours

Aktueller Status

Höhe 663.4 km
Geschwindigkeit 7.52 km/s
Subsatellitenpunkt -82.02°S, 54.32°W
Startdatum 25. Nov. 2024
Alter 1.2 years
Typ other

Technische Details

Klassifizierung Payload
Masse 28.00 kg
Trockenmasse 28.00 kg
Gesamtmasse 28.00 kg
Länge 0.40 m
Durchmesser 0.20 m
Spannweite 1.60 m
Form Box+ 2 pan + ant
Hersteller KINEIS
Bus-Typ Cubesat 16U
Phasenstatus In Orbit
Besitzer/Staat KINEIS/F

Große Konstellationen

Loading constellations...